Regional Weather Roundup
Issued by NWS New Orleans/Baton Rouge, LA

Home | Current Version | Previous Version | Text Only | Print | Product List | Glossary On
Versions: 1 2 3 4 5 6 7 8 9 10 11 12 13 14 15 16 17 18 19 20 21 22 23 24 25 26 27 28 29 30 31 32 33 34 35 36 37 38 39 40 41 42 43 44 45 46 47 48 49 50
707
ASUS44 KLIX 281505
RWRLIX
NEW ORLEANS REGIONAL WEATHER ROUNDUP
NATIONAL WEATHER SERVICE NEW ORLEANS LA
900 AM CST FRI NOV 28 2014

NOTE: "FAIR" INDICATES FEW OR NO CLOUDS BELOW 12,000 FEET WITH NO
      SIGNIFICANT WEATHER AND/OR OBSTRUCTIONS TO VISIBILITY.
      SKY/WX - SKY CONDITION AND SIGNIFICANT WEATHER.
      TMP - AIR TEMPERATURE.     DP    - DEWPOINT TEMPERATURE.
      RH  - RELATIVE HUMIDITY.   PRES  - PRESSURE.
      HI  - HEAT INDEX.          WCI   - WIND CHILL INDEX.

*  THESE STATIONS ARE NOT NWS OR FAA STATIONS AND ARE NOT UNDER
   NWS QUALITY CONTROL.

LAZ038-040-048-061>063-065>067-069-281600-
SOUTHEAST LOUISIANA

CITY           SKY/WX    TMP DP  RH WIND       PRES   REMARKS
N.O. AUDUBON     N/A     50  38  64 MISG        N/A
N.O. INTL ARPT SUNNY     50  36  58 E9        30.43S
N.O. LAKEFRONT SUNNY     49  37  63 E9        30.45R
N.O. DOWNTOWN*   N/A     48  36  61 NE5       30.44R
SLIDELL        SUNNY     44  32  62 E8        30.45R
BATON ROUGE    SUNNY     45  32  60 E8        30.44S
BOOTHVILLE     SUNNY     54  44  69 NE9       30.42S
BELLE CHASSE   SUNNY     52  37  56 E8        30.43R
BOGALUSA*        N/A     44  34  67 E3        30.48S
NEW ROADS*       N/A     44  33  64 E8        30.44S
GONZALES*        N/A     48  39  71 E3        30.44R
HAMMOND*       SUNNY     46  30  53 E6        30.47R
HOUMA*         SUNNY     48  41  76 NE8       30.43S
PORT FOURCHON* SUNNY     54  45  71 NE9       30.45S

$$

MSZ070-080>082-281600-
SOUTHERN MISSISSIPPI

CITY           SKY/WX    TMP DP  RH WIND       PRES   REMARKS
MCCOMB         SUNNY     42  30  62 E8        30.44R
GULFPORT       SUNNY     44  32  62 NE6       30.46R
BILOXI         SUNNY     45  31  57 NE9       30.46R
PASCAGOULA     SUNNY     44  32  62 NE7       30.46R
STENNIS ARPT*  SUNNY     45  30  57 VRB6      30.47R

$$

COASTAL OBSERVATIONS
LAKE AND NEARSHORE STATIONS

STATION/POSITION TIME  TEMP    WIND        PRES    WAVE
                       AIR SEA DIR/SP/G            HT/PER
                 (UTC) (F)     (DEG/KT/KT) (MB)    (FT/S)
PASCAGOULA       1500   45      60/ 10/ 12 1030.6
WAVELAND YACHT   1500   43      70/  6/  9 1030.3
GRAND ISLE       1500   52 59   70/ 11/ 14 1030.3
SOUTHWEST PASS   1500   55                 1029.8
NEW CANAL        1500   47 53   70/ 11/ 14 1030.9
SHELL BEACH      1500   49 49   70/ 12/ 14 1030.2

OFFSHORE STATIONS

STATION/POSITION TIME  TEMP    WIND        PRES    WAVE
                       AIR SEA DIR/SP/G            HT/PER
                 (UTC) (F)     (DEG/KT/KT) (MB)    (FT/S)
64 S DAUPHIN ISL 1400   55 71   60/ 12/ 16 1030.5    3/ 6

$$




USA.gov is the U.S. government's official web portal to all federal, state and local government web resources and services.